Location: Cahas Mountain Overlook
(37.0833°N, 80.1000°W)
Time: 23:34:02
(UTC-05:00)

Tiros 1 - All Passes

Search period start: 28 November 2023 00:00
Search period end: 08 December 2023 00:00
Orbit: 626 x 659 km, 48.4° (Epoch: 28 November)

Date Brightness Start Highest point End Pass type
(mag) Time Alt. Az. Time Alt. Az. Time Alt. Az.
28 Nov - 04:58:46 10° SSE 05:00:54 13° SE 05:03:02 10° ESE visible
28 Nov - 06:37:37 10° SW 06:42:23 77° SE 06:47:10 10° ENE visible
28 Nov - 08:20:38 10° W 08:24:52 30° NNW 08:29:05 10° NE daylight
28 Nov - 10:04:31 10° NW 10:08:05 20° N 10:11:39 10° NE daylight
28 Nov - 11:46:57 10° NW 11:51:16 33° NNE 11:55:31 10° E daylight
28 Nov - 13:28:57 10° WNW 13:33:37 63° SW 13:38:13 10° SE daylight
29 Nov - 05:20:56 10° SSW 05:25:05 30° SE 05:29:16 10° ENE visible
29 Nov - 07:02:20 10° WSW 07:07:02 54° NNW 07:11:43 10° NE daylight
29 Nov - 08:46:08 10° WNW 08:49:55 23° N 08:53:42 10° NE daylight
29 Nov - 10:29:26 10° NW 10:33:14 23° N 10:37:00 10° ENE daylight
29 Nov - 12:11:26 10° NW 12:16:06 56° NNE 12:20:43 10° ESE daylight
29 Nov - 13:53:59 10° WNW 13:57:59 28° SW 14:01:55 10° SSE daylight
30 Nov - 04:06:51 10° SE 04:08:03 11° SE 04:09:16 10° ESE visible
30 Nov - 05:44:44 10° SW 05:49:28 68° SE 05:54:14 10° ENE visible
30 Nov - 07:27:34 10° W 07:31:52 32° NNW 07:36:10 10° NE daylight
30 Nov - 09:11:29 10° NW 09:15:04 20° N 09:18:38 10° NE daylight
30 Nov - 10:54:03 10° NW 10:58:17 31° NNE 11:02:29 10° E daylight
30 Nov - 12:35:59 10° WNW 12:40:43 72° SW 12:45:22 10° SE daylight
30 Nov - 14:20:37 10° WSW 14:22:08 11° SW 14:23:39 10° SSW daylight
01 Dec - 04:28:15 10° S 04:32:12 26° SE 04:36:11 10° ENE visible
01 Dec - 06:09:21 10° WSW 06:14:04 60° NNW 06:18:48 10° NE visible
01 Dec - 07:53:02 10° WNW 07:56:54 24° NNW 08:00:45 10° NE daylight
01 Dec - 09:36:28 10° NW 09:40:13 22° N 09:43:57 10° ENE daylight
01 Dec - 11:18:30 10° NW 11:23:09 51° NNE 11:27:43 10° ESE daylight
01 Dec - 13:00:55 10° WNW 13:05:06 32° SW 13:09:14 10° SSE daylight
02 Dec - 04:51:52 10° SW 04:56:33 60° SE 05:01:16 10° ENE visible
02 Dec - 06:34:29 10° W 06:38:52 35° NNW 06:43:16 10° NE visible
02 Dec - 08:18:26 10° NW 08:22:02 21° N 08:25:37 10° NE daylight
02 Dec - 10:01:06 10° NW 10:05:16 29° NNE 10:09:25 10° E daylight
02 Dec - 11:43:01 10° WNW 11:47:47 82° SW 11:52:29 10° SE daylight
02 Dec - 13:26:58 10° W 13:29:16 14° SW 13:31:35 10° SSW daylight
03 Dec - 03:35:36 10° S 03:39:19 23° SE 03:43:04 10° E visible
03 Dec - 05:16:21 10° WSW 05:21:06 67° NNW 05:25:52 10° NE visible
03 Dec - 06:59:56 10° WNW 07:03:51 25° NNW 07:07:48 10° NE daylight
03 Dec - 08:43:28 10° NW 08:47:11 22° N 08:50:52 10° ENE daylight
03 Dec - 10:25:34 10° NW 10:30:09 46° NNE 10:34:43 10° ESE daylight
03 Dec - 12:07:51 10° WNW 12:12:12 37° SW 12:16:30 10° SSE daylight
04 Dec - 03:59:00 10° SW 04:03:37 52° SE 04:08:16 10° ENE visible
04 Dec - 05:41:25 10° W 05:45:51 37° NNW 05:50:20 10° NE visible
04 Dec - 07:25:21 10° NW 07:28:58 21° N 07:32:35 10° NE daylight
04 Dec - 09:08:08 10° NW 09:12:15 28° NNE 09:16:19 10° ENE daylight
04 Dec - 10:50:03 10° NW 10:54:50 88° NE 10:59:33 10° SE daylight
04 Dec - 12:33:34 10° W 12:36:25 16° SW 12:39:14 10° SSW daylight
05 Dec - 02:42:59 10° S 02:46:25 20° SE 02:49:52 10° E night (unlit)
05 Dec - 04:23:21 10° WSW 04:28:07 75° NNW 04:32:55 10° NE visible
05 Dec - 06:06:48 10° WNW 06:10:49 26° NNW 06:14:49 10° NE visible
05 Dec - 07:50:27 10° NW 07:54:07 21° N 07:57:46 10° NE daylight
05 Dec - 09:32:36 10° NW 09:37:09 42° NNE 09:41:40 10° E daylight
05 Dec - 11:14:47 10° WNW 11:19:17 42° SW 11:23:43 10° SSE daylight
06 Dec - 03:06:09 10° SSW 03:10:40 45° SE 03:15:14 10° ENE visible
06 Dec - 04:48:20 10° W 04:52:51 41° NNW 04:57:22 10° NE visible
06 Dec - 06:32:14 10° NW 06:35:54 21° N 06:39:33 10° NE visible
06 Dec - 08:15:09 10° NW 08:19:12 26° NNE 08:23:12 10° ENE daylight
06 Dec - 09:57:04 10° NW 10:01:51 79° NE 10:06:35 10° ESE daylight
06 Dec - 11:40:15 10° W 11:43:31 19° SW 11:46:45 10° S daylight
07 Dec - 01:50:26 10° S 01:53:31 17° SE 01:56:36 10° E night (unlit)
07 Dec - 03:30:22 10° WSW 03:35:07 84° NW 03:39:56 10° NE visible
07 Dec - 05:13:41 10° WNW 05:17:45 27° NNW 05:21:50 10° NE visible
07 Dec - 06:57:24 10° NW 07:01:02 21° N 07:04:40 10° NE daylight
07 Dec - 08:39:38 10° NW 08:44:07 39° NNE 08:48:35 10° E daylight
07 Dec - 10:21:44 10° WNW 10:26:20 49° SW 10:30:52 10° SSE daylight
